Hourly Data Report for October 08, 2013

All times are specified in Local Standard Time (LST). Add 1 hour to adjust for Daylight Saving Time where and when it is observed.

POND INLET A
NUNAVUT

72°41'22.000" N
77°58'08.000" W
61.60 m
2403206
71095
YIO

Download Data

Hourly Data (October 2013)
Hourly Data Report for October 8, 2013
Temp Definition
°C
Dew Point Temp Definition
°C
Rel Hum Definition
%
Wind Dir Definition
10's deg

Wind Spd Definition
km/h
Visibility Definition
km
Stn Press Definition
kPa
Hmdx Definition


Wind Chill Definition


Weather Definition


TIME
00:00 Legend Double Dagger -13.5 -16.4 79 15 17 16.1 101.32   -22 LegendNANA
01:00 Legend Double Dagger -11.1 -15.3 71 15 17 16.1 101.32   -19 LegendNANA
02:00 Legend Double Dagger -10.4 -14.4 73 15 15 16.1 101.31   -17 LegendNANA
03:00 Legend Double Dagger -9.8 -13.4 75 16 9 16.1 101.30   -15 LegendNANA
04:00 Legend Double Dagger -9.5 -12.5 79 15 5 16.1 101.29   -12 LegendNANA
05:00 Legend Double Dagger -9.5 -12.2 81 19 4 16.1 101.29   -12 LegendNANA
06:00 Legend Double Dagger -10.2 -13.2 79 16 5 16.1 101.29   -13 LegendNANA
07:00 Legend Double Dagger -11.4 -13.4 85 13 9 16.1 101.28   -17 LegendNANA
08:00 Legend Double Dagger -9.7 -12.4 81 15 13 16.1 101.26   -16 LegendNANA
09:00 Legend Double Dagger -9.1 -11.6 82 15 15 16.1 101.24   -16 LegendNANA
10:00 Legend Double Dagger -8.3 -11.2 80 18 11 16.1 101.19   -14 LegendNANA
11:00 Legend Double Dagger -7.1 -10.2 79 16 9 16.1 101.13   -11 LegendNANA
12:00 Legend Double Dagger -6.0 -8.9 80 17 11 16.1 101.10   -11 LegendNANA
13:00 Legend Double Dagger -5.7 -8.9 78 21 5 9.7 101.07   -8 LegendNANA
14:00 Legend Double Dagger -3.7 -7.5 75 3 17 14.5 101.06   -9 LegendNANA
15:00 Legend Double Dagger -3.5 -7.5 74 6 28 16.1 101.02   -11 LegendNANA
16:00 Legend Double Dagger -4.2 -8.3 73 6 18 16.1 101.04   -10 LegendNANA
17:00 Legend Double Dagger -4.0 -9.5 66 5 28 16.1 101.02   -11 LegendNANA
18:00 Legend Double Dagger -4.5 -9.4 69 6 21 16.1 100.98   -11 LegendNANA
19:00 Legend Double Dagger -4.9 -10.3 66 7 24 16.1 100.94   -12 LegendNANA
20:00 Legend Double Dagger -5.2 -10.6 66 8 21 16.1 100.92   -12 LegendNANA
21:00 Legend Double Dagger -5.5 -10.5 68 8 21 16.1 100.89   -12 LegendNANA
22:00 Legend Double Dagger -5.3 -10.0 70 7 21 16.1 100.83   -12 LegendNANA
23:00 Legend Double Dagger -5.7 -10.7 68 8 24 16.1 100.79   -13 LegendNANA

Notes on Data Quality.

Legend

  • E = Estimated
  • M = Missing
  • NA = Not Available
  • ‡ = Partner data that is not subject to review by the National Climate Archives
Date modified: